Time,TemperatureF,DewpointF,PressureIn,WindDirection,WindDirectionDegrees,WindSpeedMPH,WindSpeedGustMPH,Humidity,HourlyPrecipIn,Conditions,Clouds,dailyrainin,SoftwareType,DateUTC
2013-08-17 00:27:00,55.6,52.4,29.95,WNW,288,0.0,0.0,89,0.00,,,0.00,Wunderground v.1.15,2013-08-17 07:27:00,
2013-08-17 00:57:00,54.6,52.0,29.95,WNW,289,0.0,1.0,91,0.00,,,0.00,Wunderground v.1.15,2013-08-17 07:57:00,
2013-08-17 01:27:00,54.3,52.0,29.94,WNW,290,3.0,3.0,92,0.00,,,0.00,Wunderground v.1.15,2013-08-17 08:27:00,
2013-08-17 01:57:00,53.9,51.6,29.94,WNW,290,0.0,1.0,92,0.00,,,0.00,Wunderground v.1.15,2013-08-17 08:57:00,
2013-08-17 02:27:00,53.4,51.1,29.93,WNW,294,3.0,6.0,92,0.00,,,0.00,Wunderground v.1.15,2013-08-17 09:27:00,
2013-08-17 02:57:00,53.9,51.3,29.93,WNW,288,1.0,6.0,91,0.00,,,0.00,Wunderground v.1.15,2013-08-17 09:57:00,
2013-08-17 03:27:00,54.2,51.0,29.93,WNW,299,1.0,1.0,89,0.00,,,0.00,Wunderground v.1.15,2013-08-17 10:27:00,
2013-08-17 03:57:00,53.9,51.0,29.94,WNW,299,0.0,2.0,90,0.00,,,0.00,Wunderground v.1.15,2013-08-17 10:57:00,
2013-08-17 04:27:00,54.1,50.9,29.94,WNW,299,1.0,1.0,89,0.00,,,0.00,Wunderground v.1.15,2013-08-17 11:27:00,
2013-08-17 04:57:00,54.3,51.1,29.94,WNW,290,2.0,7.0,89,0.00,,,0.00,Wunderground v.1.15,2013-08-17 11:57:00,
2013-08-17 05:27:00,53.4,50.5,29.94,WNW,302,1.0,1.0,90,0.00,,,0.00,Wunderground v.1.15,2013-08-17 12:27:00,
2013-08-17 05:57:00,52.8,50.2,29.94,WNW,302,1.0,2.0,91,0.00,,,0.00,Wunderground v.1.15,2013-08-17 12:57:00,
2013-08-17 06:27:00,52.2,49.9,29.95,WNW,301,1.0,1.0,92,0.00,,,0.00,Wunderground v.1.15,2013-08-17 13:27:00,
2013-08-17 06:57:00,52.1,50.1,29.95,WNW,290,3.0,3.0,93,0.00,,,0.00,Wunderground v.1.15,2013-08-17 13:57:00,
2013-08-17 07:27:00,52.1,50.1,29.96,WNW,292,2.0,2.0,93,0.00,,,0.00,Wunderground v.1.15,2013-08-17 14:27:00,
2013-08-17 07:57:00,54.1,51.5,29.96,WNW,294,2.0,5.0,91,0.00,,,0.00,Wunderground v.1.15,2013-08-17 14:57:00,
2013-08-17 08:27:00,57.7,53.2,29.97,WNW,292,2.0,2.0,85,0.00,,,0.00,Wunderground v.1.15,2013-08-17 15:27:00,
2013-08-17 08:57:00,62.2,54.9,29.97,West,275,1.0,1.0,77,0.00,,,0.00,Wunderground v.1.15,2013-08-17 15:57:00,
2013-08-17 09:27:00,65.4,55.0,29.97,WSW,250,0.0,3.0,69,0.00,,,0.00,Wunderground v.1.15,2013-08-17 16:27:00,
2013-08-17 09:57:00,65.0,55.0,29.96,SSE,151,2.0,5.0,70,0.00,,,0.00,Wunderground v.1.15,2013-08-17 16:57:00,
2013-08-17 10:27:00,67.2,55.5,29.97,SE,129,3.0,7.0,66,0.00,,,0.00,Wunderground v.1.15,2013-08-17 17:27:00,
2013-08-17 10:57:00,70.5,56.9,29.95,SSE,150,2.0,6.0,62,0.00,,,0.00,Wunderground v.1.15,2013-08-17 17:57:00,
2013-08-17 11:27:00,76.5,58.1,29.96,SW,228,2.0,2.0,53,0.00,,,0.00,Wunderground v.1.15,2013-08-17 18:27:00,
2013-08-17 11:57:00,76.1,55.5,29.94,NW,313,8.0,15.0,49,0.00,,,0.00,Wunderground v.1.15,2013-08-17 18:57:00,
2013-08-17 12:27:00,76.6,53.7,29.94,WNW,297,7.0,7.0,45,0.00,,,0.00,Wunderground v.1.15,2013-08-17 19:27:00,
2013-08-17 12:57:00,73.8,54.5,29.94,WNW,297,4.0,12.0,51,0.00,,,0.00,Wunderground v.1.15,2013-08-17 19:57:00,
2013-08-17 13:27:00,73.5,54.8,29.93,NW,318,8.0,8.0,52,0.00,,,0.00,Wunderground v.1.15,2013-08-17 20:27:00,
2013-08-17 13:57:00,75.6,55.6,29.92,WNW,294,8.0,8.0,50,0.00,,,0.00,Wunderground v.1.15,2013-08-17 20:57:00,
2013-08-17 14:27:00,74.0,55.8,29.91,WNW,290,10.0,18.0,53,0.00,,,0.00,Wunderground v.1.15,2013-08-17 21:27:00,
2013-08-17 14:57:00,74.3,55.5,29.91,WNW,286,9.0,15.0,52,0.00,,,0.00,Wunderground v.1.15,2013-08-17 21:57:00,
2013-08-17 15:27:00,73.2,56.1,29.90,WNW,302,10.0,17.0,55,0.00,,,0.00,Wunderground v.1.15,2013-08-17 22:27:00,
2013-08-17 15:57:00,71.3,56.2,29.87,WNW,297,12.0,20.0,59,0.00,,,0.00,Wunderground v.1.15,2013-08-17 22:57:00,
2013-08-17 16:27:00,71.9,57.3,29.87,WNW,284,12.0,12.0,60,0.00,,,0.00,Wunderground v.1.15,2013-08-17 23:27:00,
2013-08-17 16:57:00,71.6,57.4,29.86,WNW,288,12.0,12.0,61,0.00,,,0.00,Wunderground v.1.15,2013-08-17 23:57:00,
2013-08-17 17:27:00,71.4,57.2,29.85,NW,307,11.0,18.0,61,0.00,,,0.00,Wunderground v.1.15,2013-08-18 00:27:00,
2013-08-17 17:57:00,70.4,56.8,29.85,NW,307,13.0,13.0,62,0.00,,,0.00,Wunderground v.1.15,2013-08-18 00:57:00,
2013-08-17 18:27:00,68.4,56.2,29.84,NW,312,13.0,24.0,65,0.00,,,0.00,Wunderground v.1.15,2013-08-18 01:27:00,
2013-08-17 18:57:00,66.6,55.7,29.84,NW,305,10.0,21.0,68,0.00,,,0.00,Wunderground v.1.15,2013-08-18 01:57:00,
2013-08-17 19:27:00,65.3,55.3,29.84,NW,320,5.0,5.0,70,0.00,,,0.00,Wunderground v.1.15,2013-08-18 02:27:00,
2013-08-17 19:57:00,63.2,54.8,29.84,WNW,300,6.0,6.0,74,0.00,,,0.00,Wunderground v.1.15,2013-08-18 02:57:00,
2013-08-17 20:27:00,62.0,54.7,29.84,WNW,289,5.0,14.0,77,0.00,,,0.00,Wunderground v.1.15,2013-08-18 03:27:00,
2013-08-17 20:57:00,60.6,54.4,29.86,NW,307,2.0,5.0,80,0.00,,,0.00,Wunderground v.1.15,2013-08-18 03:57:00,
2013-08-17 21:27:00,59.1,54.3,29.86,WNW,292,9.0,15.0,84,0.00,,,0.00,Wunderground v.1.15,2013-08-18 04:27:00,
2013-08-17 21:57:00,58.7,54.2,29.86,WNW,284,4.0,4.0,85,0.00,,,0.00,Wunderground v.1.15,2013-08-18 04:57:00,
2013-08-17 22:27:00,57.9,53.7,29.87,WNW,300,6.0,6.0,86,0.00,,,0.00,Wunderground v.1.15,2013-08-18 05:27:00,
2013-08-17 22:57:00,57.2,53.7,29.86,WNW,302,5.0,5.0,88,0.00,,,0.00,Wunderground v.1.15,2013-08-18 05:57:00,
2013-08-17 23:27:00,56.0,53.1,29.86,WNW,295,2.0,7.0,90,0.00,,,0.00,Wunderground v.1.15,2013-08-18 06:27:00,
2013-08-17 23:57:00,55.6,52.7,29.86,WNW,301,3.0,3.0,90,0.00,,,0.00,Wunderground v.1.15,2013-08-18 06:57:00,